sat.trackr.live / text

‹ back to catalog

STARLINK-36371

NORAD 67938 · 2026-037G

PAYLOAD ACTIVE UNKNOWN

§ Identity

Operator
Country
US
Launch date
2026-02-24
Launch site
AFETR
Launch vehicle
Mass (kg)
RCS (m²)

Purposes: comms

External: N2YO · Heavens-Above · Gunter

§ Orbital elements

Epoch: 2026-09-19T04:44:38.143680Z

Period
94.27 min
Inclination
42.9991°
Eccentricity
0.0001304
Mean motion
15.27587137 rev/d
Perigee alt
482.1 km
Apogee alt
483.9 km
Semi-major
6,861.2 km
B*
3.6666e-4
RAAN
178.0332°
Arg perigee
274.3731°
Mean anomaly
85.6972°
Rev number
3,293

§ Raw data

STARLINK-363711 67938U 26037G   26262.19766370  .00009843  00000+0  36666-3 0  99912 67938  42.9991 178.0332 0001304 274.3731  85.6972 15.27587137 32938

JSON: /api/v1/satellites/67938 · /tle

For live sub-satellite position, see the globe view (requires WebGL).

§ Visibility from observer

Set your observer location to see the next 7 days of passes ≥ 10°. The values pass through the URL so the page stays shareable.

No JS? Fill the form by hand. The geolocation button needs JavaScript.